Weather Roundup
Issued by NWS Springfield, MO

Home | Current Version | Previous Version | Text Only | Print | Product List | Glossary On
Versions: 1 2 3 4 5 6 7 8 9 10 11 12 13 14 15 16 17 18 19 20 21 22 23 24 25 26 27 28 29 30 31 32 33 34 35 36 37 38 39 40 41 42 43 44 45 46 47 48 49 50
000
NZUS99 KSGF 200807
HRRSGF

HOURLY WEATHER
NATIONAL WEATHER SERVICE SPRINGFIELD MO
200 AM CST MON NOV 20 2017

......SGF CWA......

CITY           SKY/WX    TMP DP  RH WIND       PRES   REMARKS
SPRINGFIELD    CLEAR     37  29  72 S9        30.13S WCI  30
JOPLIN         CLEAR     44  28  53 S14       30.13F
WEST PLAINS    CLOUDY    31  19  61 SE3       30.19S
ROLLA          CLOUDY    38  25  59 S14       30.14F WCI  30
OSAGE BEACH    CLOUDY    35  26  69 S6        30.13F WCI  30
BRANSON        CLEAR     41  25  52 CALM      30.17F

......SURROUNDING SGF CWA......

CITY           SKY/WX    TMP DP  RH WIND       PRES   REMARKS
CHANUTE        CLOUDY    40  29  64 S9        30.08F WCI  34
PARSONS        CLEAR     40  30  67 S7        30.11F
COFFEYVILLE    CLEAR     41  30  65 S9        30.10F
EMPORIA        CLOUDY    39  25  57 S15       30.00F WCI  31
GROVE OK       CLEAR     39  30  70 CALM        N/A
ROGERS AR      CLEAR     36  27  69 S5        30.17S WCI  32
SILOAM SPRINGS CLEAR     37  26  64 S6        30.17S WCI  32
HARRISON AR    CLEAR     32  26  78 SE3       30.17F
NEAR YELLVILLE CLEAR     29  26  89 CALM      30.20F

......KANSAS AND MISSOURI......

CITY           SKY/WX    TMP DP  RH WIND       PRES   REMARKS
KANSAS CTY INT CLOUDY    44  28  53 SW16G26   29.99F
DOWNTOWN KC    CLOUDY    46  28  49 S13       30.01F
COLUMBIA       CLOUDY    33  26  75 S8        30.10F WCI  26
SEDALIA        CLOUDY    42  30  62 S15       30.08F
ST JOSEPH      CLOUDY    43  28  55 S13       29.96F
ST LOUIS       CLEAR     37  22  54 S9        30.14F WCI  30
SPIRIT OF STL  CLEAR     25  23  92 CALM      30.15F
KIRKSVILLE     CLOUDY    40  30  67 SW12      30.01F WCI  33
WICHITA        CLOUDY    41  26  55 S10       30.02F
TOPEKA         CLOUDY    44  27  51 S9G20     29.98F
OLATHE         CLOUDY    41  29  62 S12G21    30.02F

......TENNESSEE......

CITY           SKY/WX    TMP DP  RH WIND       PRES   REMARKS
MEMPHIS        CLEAR     31  27  85 CALM      30.23F
NASHVILLE      CLEAR     29  26  89 S3        30.26S

......ARKANSAS.......

CITY           SKY/WX    TMP DP  RH WIND       PRES   REMARKS
FAYETTEVILLE   CLEAR     28  28 100 CALM      30.17F
FT SMITH       CLOUDY    37  33  85 NE3       30.20F
LITTLE ROCK    CLEAR     34  32  92 SW5       30.24F WCI  30

......OKLAHOMA.......

CITY           SKY/WX    TMP DP  RH WIND       PRES   REMARKS
TULSA          CLOUDY    45  26  47 S8        30.14F
PONCA CITY     CLEAR     45  24  43 S6        30.07F
MCALESTER      CLOUDY    43  27  53 SW5       30.18F
OKLAHOMA CITY  PTCLDY    38  27  64 S12       30.11F WCI  30

......IOWA............

CITY           SKY/WX    TMP DP  RH WIND       PRES   REMARKS
DES MOINES     PTCLDY    41  27  57 SW15      29.89F
QUAD CITIES    CLOUDY    35  24  64 SW7       29.97F WCI  29

......ILLINOIS........

CITY           SKY/WX    TMP DP  RH WIND       PRES   REMARKS
QUINCY         CLEAR     34  25  69 S13       30.05F WCI  25
CHICAGO        CLOUDY    31  22  69 SW8       30.00F WCI  23



USA.gov is the U.S. government's official web portal to all federal, state and local government web resources and services.